Location: Bay Shore Mobile Home Park
(38.5762°N, 75.0841°W)
Time: 11:53:46
(UTC+00:00)

Hubble Space Telescope - Visible Passes

Search period start: 04 October 2024 00:00
Search period end: 14 October 2024 00:00
Orbit: 504 x 508 km, 28.5° (Epoch: 03 October)

Date Brightness Start Highest point End Pass type
(mag) Time Alt. Az. Time Alt. Az. Time Alt. Az.
04 Oct 3.5 08:36:59 10° SE 08:36:59 10° SE 08:37:02 10° SE visible
04 Oct 2.9 10:12:25 10° SW 10:14:03 12° SSW 10:15:40 10° S visible
05 Oct 2.9 09:51:48 11° SSW 09:52:47 11° SSW 09:54:06 10° S visible
06 Oct 3.1 09:31:57 10° S 09:31:57 10° S 09:32:20 10° S visible
